[[{"header":{"parameterUnit":"m.s-1","parameterCategory":2,"la1":30.2991,"la2":30.254,"lo1":-89.0895,"lo2":-89.0444,"dy":0.0017,"dx":0.0017,"nx":28,"ny":28,"refTime":"2024-05-22T21:00:00:Z","depth":"0","parameterNumber":2,"parameterNumberName":"U-component_of_CURRENTS"},"data":[0,0,0,0,0,0,0,0,0,0,0,0,0,0,0,0,0,0,0,0,0,0,0,0,0,0,0,0,0,0,0,0,0,0,0,0,0,0,0,0,0,0,0,0,0,0,0,0,0,0,0,0,0,0,0,0,0,0,-0.28,-0.2801,0,-0.283,-0.283,-0.283,-0.2803,-0.2803,-0.2802,-0.2801,-0.2751,-0.2751,-0.275,0,0,0,0,0,0,0,0,0,0,0,0,0,-0.2714,-0.2715,-0.28,-0.2801,-0.2801,-0.283,-0.283,-0.283,-0.2803,-0.2802,-0.2801,-0.2801,-0.2751,-0.2751,-0.275,0,0,0,0,0,0,0,0,0,0,0,0,0,-0.2745,-0.2716,-0.28,-0.2794,-0.2794,-0.283,-0.283,-0.283,-0.2804,-0.2802,-0.2801,-0.28,-0.2752,-0.2751,-0.275,-0.277,0,0,-0.2748,-0.2747,0,0,0,0,0,0,0,0,-0.2744,-0.2748,-0.2794,-0.2794,-0.2794,-0.2814,-0.2781,-0.2807,-0.2804,-0.2797,-0.2801,-0.2799,-0.2768,-0.2765,-0.2771,-0.2767,-0.2765,-0.2747,-0.2747,-0.2747,-0.2746,0,0,0,0,0,0,0,-0.2742,-0.2747,-0.2809,-0.2795,-0.2795,-0.2787,-0.279,-0.2786,-0.2785,-0.2797,-0.2796,-0.2804,-0.2767,-0.2772,-0.2769,-0.2765,-0.2748,-0.2747,-0.2746,-0.2746,-0.278,-0.2781,0,0,0,0,0,0,-0.2746,-0.2745,-0.2808,-0.281,-0.2768,-0.279,-0.2793,-0.2807,-0.2787,-0.2784,-0.2805,-0.2803,-0.2774,-0.277,-0.2767,-0.2788,-0.2747,-0.2746,-0.2745,-0.2779,-0.278,-0.2782,0,0,0,0,0,0,-0.2744,-0.2751,-0.2807,-0.278,-0.2787,-0.2793,-0.2808,-0.2808,-0.2808,-0.2794,-0.2789,-0.2805,-0.2773,-0.2769,-0.2768,-0.2786,-0.2745,-0.2745,-0.2777,-0.2779,-0.2781,-0.283,0,0,0,0,0,0,-0.2741,-0.2751,-0.2755,-0.2781,-0.2789,-0.2829,-0.281,-0.2809,-0.2816,-0.2813,-0.2793,-0.2787,-0.2771,-0.277,-0.2768,-0.2784,-0.2744,-0.2775,-0.2778,-0.278,-0.2827,-0.2834,-0.284,0,0,0,0,0,-0.2738,-0.2752,-0.2756,-0.2763,-0.2798,-0.283,-0.2833,-0.2831,-0.2817,-0.2824,-0.2812,-0.2788,-0.2785,-0.277,-0.2767,-0.2784,-0.2774,-0.2777,-0.278,-0.2824,-0.2833,-0.284,0,0,0,0,0,0,-0.2711,-0.2752,-0.2756,-0.2779,-0.2803,-0.2826,-0.2828,-0.2834,-0.2832,-0.2821,-0.2803,-0.2798,-0.2806,-0.2792,-0.2777,-0.2804,-0.2777,-0.2779,-0.2811,-0.2819,-0.2825,-0.2831,-0.2743,0,0,0,0,0,-0.2711,-0.2729,-0.2769,-0.2782,-0.2796,-0.2813,-0.2822,-0.2828,-0.2835,-0.2833,-0.2823,-0.2815,-0.282,-0.2816,-0.2814,-0.2826,-0.2797,-0.2838,-0.2844,-0.2849,-0.2854,-0.284,-0.2845,-0.2792,-0.2792,-0.2792,0,0,-0.2702,-0.2726,-0.2735,-0.2777,-0.2789,-0.2826,-0.2814,-0.2833,-0.286,-0.2828,-0.2844,-0.2835,-0.283,-0.2846,-0.2848,-0.2832,-0.2845,-0.2853,-0.2858,-0.2859,-0.2844,-0.2849,-0.2853,-0.2794,-0.2794,-0.2793,0,0,-0.27,-0.2717,-0.2736,-0.2768,-0.2801,-0.2822,-0.2831,-0.286,-0.2866,-0.2889,-0.2876,-0.288,-0.2881,-0.2887,-0.2889,-0.2932,-0.2881,-0.293,-0.2963,-0.2951,-0.2954,-0.2957,-0.2903,-0.2901,-0.2932,-0.2932,-0.2932,0,-0.2686,-0.2724,-0.2745,-0.2781,-0.2807,-0.2825,-0.2861,-0.2882,-0.2906,-0.2915,-0.2897,-0.2912,-0.2905,-0.2932,-0.2952,-0.2946,-0.2913,-0.2932,-0.2957,-0.296,-0.2962,-0.2906,-0.2903,-0.2934,-0.2934,-0.2934,-0.2934,0,-0.271,-0.2744,-0.2757,-0.2813,-0.2844,-0.2874,-0.292,-0.294,-0.2946,-0.2964,-0.2982,-0.2975,-0.298,-0.2987,-0.2983,-0.3006,-0.2968,-0.2966,-0.2933,-0.297,-0.2909,-0.2905,-0.2938,-0.2937,-0.2937,-0.2936,0,0,-0.2664,-0.2758,-0.276,-0.2792,-0.2865,-0.2889,-0.2944,-0.2993,-0.3015,-0.303,-0.3048,-0.307,-0.3053,-0.3056,-0.3048,-0.3045,-0.303,-0.3016,-0.3014,-0.2954,-0.2966,-0.2864,-0.2849,-0.3029,-0.303,-0.303,-0.2908,0,-0.2672,-0.274,-0.2792,-0.2851,-0.289,-0.2941,-0.2992,-0.3036,-0.3058,-0.3079,-0.3081,-0.3091,-0.3085,-0.3078,-0.308,-0.3047,-0.3026,-0.3061,-0.2947,-0.2943,-0.2842,-0.2844,-0.273,-0.2605,-0.2903,-0.2903,-0.2902,0,-0.2673,-0.2723,-0.2788,-0.2875,-0.2895,-0.2936,-0.3,-0.3049,-0.3099,-0.3112,-0.3126,-0.3123,-0.3129,-0.3111,-0.3065,-0.3084,-0.3032,-0.2999,-0.2993,-0.2879,-0.2834,-0.2623,-0.2586,-0.2574,-0.2895,-0.2896,-0.2896,0,-0.2613,-0.2711,-0.2757,-0.2791,-0.2899,-0.2928,-0.2977,-0.3045,-0.3076,-0.3122,-0.3126,-0.314,-0.312,-0.3088,-0.3025,-0.3043,-0.2948,-0.296,-0.2811,-0.2801,-0.2672,-0.2651,-0.2604,-0.2918,-0.2918,-0.2918,-0.2919,0,-0.26,-0.2627,-0.273,-0.2756,-0.2799,-0.289,-0.293,-0.2985,-0.3051,-0.3067,-0.3123,-0.311,-0.3115,-0.3065,-0.3018,-0.2884,-0.2933,-0.2806,-0.2768,-0.2683,-0.2665,-0.2623,-0.266,-0.2914,-0.2915,-0.2916,-0.2916,0,-0.2515,-0.2594,-0.2639,-0.2744,-0.2771,-0.2792,-0.2886,-0.2916,-0.2994,-0.3011,-0.3021,-0.3069,-0.3,-0.2972,-0.2898,-0.2841,-0.2693,-0.2686,-0.2565,-0.2516,-0.237,-0.2413,-0.2324,-0.2261,-0.2501,-0.2498,-0.2496,0,-0.2477,-0.2493,-0.2588,-0.2607,-0.2648,-0.2701,-0.274,-0.2856,-0.289,-0.296,-0.2953,-0.2927,-0.2865,-0.2724,-0.2629,-0.2501,-0.2537,-0.2335,-0.2362,-0.2334,-0.2356,-0.2403,-0.2362,-0.2198,-0.2193,-0.2189,-0.2186,0,-0.2374,-0.2403,-0.2438,-0.2487,-0.2527,-0.2566,-0.263,-0.2652,-0.2772,-0.2786,-0.2769,-0.2729,-0.2621,-0.2453,-0.2323,-0.224,-0.2288,-0.2246,-0.2259,-0.2146,-0.2153,-0.2081,-0.2292,-0.215,-0.2154,-0.2157,-0.2158,-0.216,-0.226,-0.2257,-0.2305,-0.2332,-0.2376,-0.239,-0.2358,-0.2442,-0.2452,-0.2425,-0.2515,-0.2402,-0.2337,-0.2129,-0.2053,-0.1906,-0.1992,-0.1857,-0.1916,-0.1969,-0.1906,-0.2018,-0.1818,-0.1819,-0.1821,-0.1822,-0.1823,0,-0.2119,-0.213,-0.2148,-0.2173,-0.2149,-0.2227,-0.2245,-0.2157,-0.2094,-0.2127,-0.2077,-0.2012,-0.1879,-0.1843,-0.1722,-0.1626,-0.1611,-0.1594,-0.1657,-0.1632,-0.1743,-0.1728,-0.1448,-0.1448,-0.1448,-0.1448,-0.1448,-0.1448,-0.2043,-0.201,-0.2026,-0.193,-0.1936,-0.1799,-0.1757,-0.165,-0.1601,-0.1462,-0.1453,-0.147,-0.1564,-0.1735,-0.1633,-0.1541,-0.1535,-0.1461,-0.1516,-0.1633,-0.1664,-0.1694,-0.1688,-0.1404,-0.1405,-0.1336,-0.1336,-0.1336]},{"header":{"parameterUnit":"m.s-1","parameterCategory":2,"la1":30.2991,"la2":30.254,"lo1":-89.0895,"lo2":-89.0444,"dy":0.0017,"dx":0.0017,"nx":28,"ny":28,"refTime":"2024-05-22T21:00:00:Z","depth":"0","parameterNumber":3,"parameterNumberName":"V-component_of_CURRENTS"},"data":[0,0,0,0,0,0,0,0,0,0,0,0,0,0,0,0,0,0,0,0,0,0,0,0,0,0,0,0,0,0,0,0,0,0,0,0,0,0,0,0,0,0,0,0,0,0,0,0,0,0,0,0,0,0,0,0,0,0,-0.0147,-0.0146,0,-0.0055,-0.0054,-0.0053,0.0023,0.0024,0.0025,0.0025,0.0163,0.0166,0.0169,0,0,0,0,0,0,0,0,0,0,0,0,0,-0.0203,-0.0203,-0.0147,-0.0146,-0.0145,-0.0055,-0.0054,-0.0052,0.0023,0.0024,0.0025,0.0025,0.0162,0.0166,0.0169,0,0,0,0,0,0,0,0,0,0,0,0,0,-0.015,-0.0202,-0.0147,-0.0097,-0.0092,-0.0056,-0.0054,-0.0052,0.0023,0.0024,0.0025,0.0026,0.0161,0.0165,0.017,0.0178,0,0,0.0184,0.0186,0,0,0,0,0,0,0,0,-0.0153,-0.0148,-0.0106,-0.0101,-0.0095,-0.0028,-0.0023,0.0027,0.0023,-0.0019,0.0025,0.0026,0.0102,0.0111,0.0128,0.0185,0.0191,0.0184,0.0187,0.0189,0.019,0,0,0,0,0,0,0,-0.0157,-0.0151,-0.0109,-0.0105,-0.0098,-0.0062,-0.0053,-0.0013,0.0037,-0.0015,-0.001,-0.0003,0.0105,0.0123,0.0132,0.0193,0.0184,0.0188,0.0191,0.0193,0.029,0.029,0,0,0,0,0,0,-0.0176,-0.0155,-0.0112,-0.0106,-0.0124,-0.0062,-0.0052,-0.0049,0.0036,0.0049,-0.0004,0.0,0.0115,0.0126,0.0137,0.0163,0.0189,0.0193,0.0196,0.029,0.029,0.029,0,0,0,0,0,0,-0.0177,-0.0173,-0.0115,-0.0129,-0.012,-0.0062,-0.0059,-0.0048,-0.0029,0.0044,0.0058,0.0004,0.0116,0.0131,0.0171,0.0169,0.0195,0.02,0.029,0.029,0.029,0.0209,0,0,0,0,0,0,-0.0179,-0.0174,-0.0182,-0.0131,-0.012,-0.0105,-0.006,-0.0047,-0.0027,-0.002,0.0055,0.0069,0.0118,0.0164,0.0176,0.0176,0.0203,0.029,0.029,0.029,0.0212,0.0206,0.0201,0,0,0,0,0,-0.0182,-0.0201,-0.0183,-0.0178,-0.0131,-0.0106,-0.0097,-0.0051,-0.0028,-0.0029,0.0027,0.0066,0.0171,0.0167,0.0181,0.0182,0.0291,0.029,0.029,0.0214,0.0207,0.0201,0,0,0,0,0,0,-0.0232,-0.0194,-0.0173,-0.018,-0.015,-0.0094,-0.0094,-0.006,-0.0018,-0.001,0.0062,0.0079,0.0113,0.0157,0.0151,0.021,0.0238,0.024,0.0176,0.0169,0.0164,0.0156,0.0207,0,0,0,0,0,-0.0248,-0.025,-0.0206,-0.0212,-0.0202,-0.0149,-0.0134,-0.0103,-0.0058,-0.0038,0.0015,0.0073,0.0121,0.0151,0.0195,0.0226,0.0284,0.0237,0.0232,0.0227,0.023,0.0319,0.0322,0.0288,0.0288,0.0288,0,0,-0.0269,-0.0249,-0.025,-0.0223,-0.0195,-0.019,-0.0137,-0.0123,-0.011,-0.003,-0.0002,0.005,0.0123,0.0158,0.0178,0.0196,0.0263,0.0226,0.0221,0.0228,0.0319,0.0322,0.0325,0.0288,0.0288,0.0288,0,0,-0.032,-0.0297,-0.0317,-0.0296,-0.0265,-0.0228,-0.0229,-0.0179,-0.0148,-0.0118,-0.0054,-0.0002,0.0063,0.0123,0.0162,0.0153,0.0225,0.0163,0.0138,0.0223,0.0227,0.0231,0.0293,0.0303,0.0167,0.0167,0.0167,0,-0.0349,-0.0364,-0.032,-0.0331,-0.0318,-0.0252,-0.0265,-0.0226,-0.0168,-0.0138,-0.0122,-0.0003,0.0051,0.012,0.0117,0.0142,0.0194,0.0154,0.0216,0.0221,0.0227,0.029,0.0302,0.0163,0.0164,0.0164,0.0164,0,-0.0409,-0.0418,-0.043,-0.0417,-0.0396,-0.0399,-0.0339,-0.0312,-0.0268,-0.0216,-0.0149,-0.0069,0.0008,0.0031,0.0072,0.0138,0.0162,0.0192,0.023,0.0226,0.0292,0.0306,0.0158,0.0159,0.016,0.0161,0,0,-0.0477,-0.0475,-0.0479,-0.0483,-0.0441,-0.0429,-0.0405,-0.0354,-0.0324,-0.0258,-0.0209,-0.0123,-0.0067,-0.002,0.0046,0.0122,0.0196,0.0166,0.0172,0.0222,0.0373,0.0418,0.0439,0.0239,0.0241,0.0243,0.0397,0,-0.0538,-0.0588,-0.0557,-0.0581,-0.0595,-0.0521,-0.05,-0.0438,-0.037,-0.0306,-0.0199,-0.0135,-0.0088,-0.005,0.0032,0.0162,0.0233,0.0151,0.0375,0.0381,0.0419,0.0457,0.0499,0.0643,0.0412,0.0414,0.0416,0,-0.0605,-0.0626,-0.0674,-0.0657,-0.0654,-0.065,-0.0585,-0.0556,-0.0441,-0.0384,-0.0289,-0.02,-0.0079,-0.0044,0.0175,0.0121,0.0233,0.0331,0.034,0.0425,0.0455,0.0616,0.0679,0.0839,0.0439,0.0437,0.0435,0,-0.0677,-0.0701,-0.0742,-0.0739,-0.0711,-0.0704,-0.0679,-0.0584,-0.0546,-0.0429,-0.0381,-0.0225,-0.0135,0.0024,0.0221,0.0203,0.0466,0.0473,0.0617,0.0621,0.0724,0.0733,0.0969,0.0622,0.0622,0.0622,0.0621,0,-0.0751,-0.0779,-0.0783,-0.0802,-0.0832,-0.0778,-0.0771,-0.0716,-0.0621,-0.0562,-0.0433,-0.0341,-0.0111,0.0067,0.0224,0.0475,0.0475,0.0628,0.0676,0.0694,0.0698,0.0896,0.0949,0.0627,0.0626,0.0625,0.0624,0,-0.082,-0.0828,-0.087,-0.0868,-0.0871,-0.0889,-0.0852,-0.0832,-0.0738,-0.0653,-0.0619,-0.0402,-0.016,0.0066,0.0356,0.0493,0.0829,0.0794,0.0786,0.0831,0.1098,0.1142,0.1416,0.1537,0.098,0.0982,0.0984,0,-0.0863,-0.0895,-0.0932,-0.0965,-0.097,-0.0986,-0.0989,-0.0906,-0.0865,-0.0679,-0.0634,-0.0388,-0.0175,0.0254,0.0544,0.0846,0.0951,0.1033,0.1011,0.1141,0.1227,0.1244,0.1327,0.1111,0.1113,0.1116,0.1117,0,-0.0928,-0.094,-0.0975,-0.1053,-0.1082,-0.1099,-0.1086,-0.1066,-0.0937,-0.0821,-0.0606,-0.0418,0.0009,0.0411,0.0784,0.0947,0.1163,0.1088,0.125,0.1378,0.139,0.1519,0.0956,0.1138,0.1136,0.1134,0.1133,0.1132,-0.0962,-0.1011,-0.1063,-0.1123,-0.1165,-0.1181,-0.114,-0.1075,-0.0968,-0.0685,-0.0582,-0.0183,0.0291,0.0851,0.1046,0.1429,0.1371,0.1522,0.1572,0.1582,0.1689,0.1154,0.1368,0.1368,0.1367,0.1366,0.1366,0,-0.0992,-0.1046,-0.1124,-0.1183,-0.1211,-0.1216,-0.1163,-0.103,-0.084,-0.0564,-0.0294,0.0293,0.0775,0.121,0.1697,0.1901,0.1953,0.198,0.2029,0.2098,0.1666,0.1661,0.1916,0.1916,0.1916,0.1916,0.1915,0.1915,-0.1008,-0.1086,-0.1126,-0.1186,-0.1209,-0.1129,-0.1056,-0.0835,-0.0582,-0.0072,0.0352,0.0629,0.1121,0.1833,0.2287,0.2323,0.2515,0.2474,0.2593,0.2289,0.2249,0.2212,0.2223,0.2592,0.2593,0.3019,0.3023,0.3026]}],[{"header":{"parameterUnit":"m.s-1","parameterCategory":2,"la1":30.2991,"la2":30.254,"lo1":-89.0895,"lo2":-89.0444,"dy":0.0017,"dx":0.0017,"nx":28,"ny":28,"refTime":"2024-05-22T21:00:00:Z","depth":"2","parameterNumber":2,"parameterNumberName":"U-component_of_CURRENTS"},"data":[0,0,0,0,0,0,0,0,0,0,0,0,0,0,0,0,0,0,0,0,0,0,0,0,0,0,0,0,0,0,0,0,0,0,0,0,0,0,0,0,0,0,0,0,0,0,0,0,0,0,0,0,0,0,0,0,0,0,-0.2571,-0.2571,0,-0.261,-0.261,-0.2611,-0.2592,-0.2591,-0.2591,-0.259,-0.256,-0.256,-0.256,0,0,0,0,0,0,0,0,0,0,0,0,0,-0.2481,-0.2482,-0.2571,-0.2572,-0.2572,-0.261,-0.261,-0.2611,-0.2592,-0.2591,-0.259,-0.259,-0.256,-0.256,-0.256,0,0,0,0,0,0,0,0,0,0,0,0,0,-0.2518,-0.2483,-0.2571,-0.2569,-0.257,-0.261,-0.261,-0.2611,-0.2593,-0.2591,-0.259,-0.2589,-0.256,-0.256,-0.256,-0.2583,0,0,-0.256,-0.256,0,0,0,0,0,0,0,0,-0.2515,-0.2521,-0.2569,-0.257,-0.257,-0.2597,-0.2568,-0.2599,-0.2593,-0.2581,-0.259,-0.2589,-0.2569,-0.2568,-0.2575,-0.2581,-0.258,-0.256,-0.256,-0.256,-0.256,0,0,0,0,0,0,0,-0.2513,-0.2519,-0.2584,-0.257,-0.2571,-0.2568,-0.2571,-0.2574,-0.2578,-0.2582,-0.2582,-0.259,-0.2568,-0.2576,-0.2574,-0.258,-0.256,-0.256,-0.256,-0.256,-0.2608,-0.2609,0,0,0,0,0,0,-0.2515,-0.2517,-0.2583,-0.2585,-0.2542,-0.257,-0.2574,-0.2588,-0.2579,-0.2578,-0.2591,-0.2589,-0.2576,-0.2575,-0.2573,-0.2603,-0.256,-0.256,-0.256,-0.2607,-0.2608,-0.261,0,0,0,0,0,0,-0.2513,-0.2521,-0.2581,-0.2553,-0.2561,-0.2573,-0.2588,-0.2589,-0.2595,-0.2587,-0.2584,-0.2596,-0.2575,-0.2573,-0.2582,-0.2601,-0.256,-0.256,-0.2605,-0.2607,-0.2609,-0.266,0,0,0,0,0,0,-0.251,-0.252,-0.2527,-0.2554,-0.2563,-0.2608,-0.259,-0.2591,-0.2604,-0.2601,-0.2591,-0.2587,-0.2574,-0.2583,-0.2582,-0.26,-0.2559,-0.2603,-0.2606,-0.2608,-0.2656,-0.2663,-0.2669,0,0,0,0,0,-0.2507,-0.2524,-0.2528,-0.2535,-0.2574,-0.2609,-0.2613,-0.2616,-0.2605,-0.2615,-0.2609,-0.2587,-0.2598,-0.2584,-0.2583,-0.2601,-0.2602,-0.2605,-0.2608,-0.2653,-0.2662,-0.2669,0,0,0,0,0,0,-0.2485,-0.2525,-0.2529,-0.2556,-0.2582,-0.2607,-0.2614,-0.2621,-0.2627,-0.2619,-0.2605,-0.2602,-0.2618,-0.2607,-0.2591,-0.2624,-0.2597,-0.26,-0.2632,-0.2639,-0.2646,-0.2649,-0.2559,0,0,0,0,0,-0.2487,-0.2507,-0.2545,-0.2563,-0.2577,-0.2597,-0.261,-0.2618,-0.2629,-0.263,-0.2626,-0.2624,-0.2633,-0.2632,-0.2635,-0.2653,-0.2625,-0.2665,-0.2672,-0.2677,-0.268,-0.2669,-0.2674,-0.262,-0.262,-0.262,0,0,-0.2481,-0.2506,-0.2516,-0.2559,-0.2575,-0.2611,-0.2601,-0.2626,-0.2654,-0.2627,-0.265,-0.2646,-0.2643,-0.2665,-0.267,-0.2655,-0.2675,-0.2681,-0.2685,-0.2686,-0.2672,-0.2677,-0.2682,-0.2622,-0.2621,-0.2621,0,0,-0.2485,-0.2504,-0.2525,-0.2557,-0.2594,-0.2614,-0.2625,-0.2657,-0.2666,-0.2696,-0.2685,-0.2694,-0.2703,-0.2709,-0.2712,-0.2757,-0.2711,-0.2757,-0.2789,-0.2778,-0.2781,-0.2785,-0.2737,-0.2736,-0.2758,-0.2758,-0.2758,0,-0.2476,-0.2514,-0.2536,-0.2572,-0.2599,-0.2619,-0.2655,-0.2679,-0.271,-0.2719,-0.2707,-0.273,-0.2727,-0.2755,-0.2774,-0.2771,-0.2742,-0.2758,-0.2784,-0.2787,-0.2789,-0.274,-0.2738,-0.2761,-0.2761,-0.276,-0.276,0,-0.2504,-0.2538,-0.2553,-0.2608,-0.264,-0.2673,-0.2717,-0.2742,-0.2752,-0.277,-0.2794,-0.2794,-0.2803,-0.2811,-0.2808,-0.2832,-0.2797,-0.2794,-0.2761,-0.2798,-0.2744,-0.274,-0.2765,-0.2764,-0.2763,-0.2762,0,0,-0.2465,-0.2556,-0.2559,-0.259,-0.2663,-0.2688,-0.2743,-0.2791,-0.2813,-0.2836,-0.2857,-0.2885,-0.2872,-0.2876,-0.2871,-0.2869,-0.286,-0.2842,-0.284,-0.2788,-0.2804,-0.2703,-0.2689,-0.2858,-0.2858,-0.2859,-0.2752,0,-0.2475,-0.2542,-0.2591,-0.2651,-0.2689,-0.2739,-0.2788,-0.2832,-0.2857,-0.2882,-0.2889,-0.2904,-0.2902,-0.29,-0.2902,-0.2874,-0.2857,-0.2887,-0.2784,-0.278,-0.268,-0.2684,-0.2506,-0.2391,-0.2749,-0.2748,-0.2748,0,-0.2479,-0.2527,-0.2591,-0.2674,-0.2693,-0.2735,-0.2797,-0.2845,-0.2896,-0.2912,-0.2931,-0.2933,-0.2944,-0.293,-0.2893,-0.2909,-0.2864,-0.2834,-0.2829,-0.2716,-0.2673,-0.2417,-0.2371,-0.2742,-0.2742,-0.2743,-0.2743,0,-0.2423,-0.2518,-0.2564,-0.2596,-0.27,-0.2729,-0.2776,-0.2842,-0.2872,-0.2921,-0.293,-0.2949,-0.2936,-0.2911,-0.2859,-0.2874,-0.2793,-0.2801,-0.2661,-0.2651,-0.2469,-0.2444,-0.2765,-0.2766,-0.2766,-0.2766,-0.2766,0,-0.2412,-0.2441,-0.2539,-0.2565,-0.2607,-0.2694,-0.2734,-0.2787,-0.2852,-0.2868,-0.2928,-0.2918,-0.2932,-0.2892,-0.2852,-0.2731,-0.2781,-0.2656,-0.2621,-0.248,-0.2458,-0.2747,-0.2747,-0.2762,-0.2763,-0.2764,-0.2764,0,-0.2334,-0.241,-0.2455,-0.2556,-0.2582,-0.2604,-0.2694,-0.2721,-0.28,-0.2819,-0.2832,-0.288,-0.2823,-0.2808,-0.2745,-0.2691,-0.2609,-0.2552,-0.2368,-0.2314,-0.2473,-0.2477,-0.2382,-0.2378,-0.2374,-0.2371,-0.2368,0,-0.23,-0.2318,-0.2409,-0.2428,-0.2469,-0.2521,-0.2556,-0.2666,-0.2698,-0.277,-0.2763,-0.2748,-0.269,-0.2568,-0.2477,-0.2365,-0.2472,-0.2147,-0.2156,-0.246,-0.2436,-0.2445,-0.2453,-0.1923,-0.1917,-0.1912,-0.1908,0,-0.2209,-0.2238,-0.2272,-0.2316,-0.2353,-0.239,-0.2451,-0.2469,-0.2583,-0.2602,-0.2588,-0.255,-0.2452,-0.2256,-0.2142,-0.2061,-0.216,-0.2041,-0.2393,-0.2059,-0.2021,-0.2,-0.2024,-0.1864,-0.1868,-0.1871,-0.1874,-0.1876,-0.2109,-0.2104,-0.2147,-0.217,-0.2214,-0.2223,-0.2187,-0.2266,-0.2273,-0.2254,-0.2334,-0.2206,-0.2183,-0.189,-0.1782,-0.1696,-0.1842,-0.1774,-0.1791,-0.1813,-0.1791,-0.175,-0.1535,-0.1537,-0.1539,-0.1541,-0.1543,0,-0.1975,-0.1984,-0.1999,-0.2015,-0.1984,-0.2062,-0.208,-0.2011,-0.1949,-0.1978,-0.193,-0.1708,-0.1572,-0.155,-0.1348,-0.1311,-0.1321,-0.1262,-0.129,-0.1332,-0.1371,-0.133,-0.0949,-0.0947,-0.0946,-0.0944,0,0,-0.1902,-0.1861,-0.1867,-0.1764,-0.1768,-0.165,-0.1608,-0.1559,-0.1534,-0.1434,-0.1374,-0.1456,-0.1487,-0.1218,-0.1159,-0.1021,-0.1165,-0.0964,-0.1437,-0.151,-0.1547,-0.1656,-0.1639,0,0,0,0,0]},{"header":{"parameterUnit":"m.s-1","parameterCategory":2,"la1":30.2991,"la2":30.254,"lo1":-89.0895,"lo2":-89.0444,"dy":0.0017,"dx":0.0017,"nx":28,"ny":28,"refTime":"2024-05-22T21:00:00:Z","depth":"2","parameterNumber":3,"parameterNumberName":"V-component_of_CURRENTS"},"data":[0,0,0,0,0,0,0,0,0,0,0,0,0,0,0,0,0,0,0,0,0,0,0,0,0,0,0,0,0,0,0,0,0,0,0,0,0,0,0,0,0,0,0,0,0,0,0,0,0,0,0,0,0,0,0,0,0,0,-0.024,-0.024,0,-0.0149,-0.0148,-0.0146,-0.0081,-0.0081,-0.008,-0.008,0.0053,0.0056,0.006,0,0,0,0,0,0,0,0,0,0,0,0,0,-0.0303,-0.0302,-0.024,-0.0239,-0.0238,-0.0149,-0.0147,-0.0146,-0.0081,-0.0081,-0.008,-0.008,0.0052,0.0056,0.006,0,0,0,0,0,0,0,0,0,0,0,0,0,-0.0248,-0.0302,-0.0241,-0.0196,-0.0192,-0.0149,-0.0147,-0.0146,-0.0081,-0.0081,-0.008,-0.008,0.0051,0.0056,0.006,0.0079,0,0,0.0075,0.0077,0,0,0,0,0,0,0,0,-0.0252,-0.0246,-0.0204,-0.0199,-0.0194,-0.0127,-0.0121,-0.0069,-0.0081,-0.0121,-0.008,-0.0079,-0.0005,0.0005,0.0022,0.0085,0.0091,0.0075,0.0078,0.008,0.0082,0,0,0,0,0,0,0,-0.0256,-0.0249,-0.0202,-0.0203,-0.0197,-0.0162,-0.0154,-0.011,-0.0065,-0.0118,-0.0113,-0.0106,-0.0001,0.0018,0.0026,0.0092,0.0075,0.008,0.0083,0.0084,0.0193,0.0193,0,0,0,0,0,0,-0.0274,-0.0253,-0.0205,-0.02,-0.0224,-0.0162,-0.0152,-0.0148,-0.0067,-0.0054,-0.0107,-0.0103,0.0009,0.002,0.0031,0.0061,0.008,0.0085,0.0088,0.0193,0.0193,0.0193,0,0,0,0,0,0,-0.0275,-0.027,-0.0209,-0.0225,-0.0215,-0.0162,-0.0157,-0.0146,-0.0127,-0.0059,-0.0045,-0.0098,0.001,0.0024,0.0069,0.0067,0.0087,0.0091,0.0193,0.0193,0.0193,0.0119,0,0,0,0,0,0,-0.0278,-0.0272,-0.0277,-0.0227,-0.0215,-0.0193,-0.0157,-0.0145,-0.0124,-0.0119,-0.0047,-0.0034,0.0012,0.0061,0.0073,0.0074,0.0095,0.0193,0.0193,0.0193,0.0121,0.0116,0.0112,0,0,0,0,0,-0.028,-0.0293,-0.0278,-0.0272,-0.0224,-0.0194,-0.0184,-0.0143,-0.0125,-0.0122,-0.007,-0.0036,0.007,0.0065,0.0079,0.0081,0.0193,0.0193,0.0193,0.0123,0.0117,0.0112,0,0,0,0,0,0,-0.0323,-0.0286,-0.0269,-0.0269,-0.0238,-0.0183,-0.0179,-0.015,-0.0107,-0.0101,-0.0035,-0.0019,0.0018,0.006,0.0052,0.0113,0.0137,0.014,0.0079,0.0074,0.007,0.0057,0.0099,0,0,0,0,0,-0.0336,-0.0336,-0.0292,-0.0294,-0.0282,-0.0232,-0.0216,-0.0187,-0.0143,-0.0123,-0.0073,-0.0018,0.0029,0.0059,0.0103,0.0138,0.0186,0.0149,0.0144,0.014,0.014,0.0213,0.0215,0.0194,0.0194,0.0194,0,0,-0.0354,-0.0334,-0.0333,-0.0303,-0.0275,-0.0266,-0.022,-0.0202,-0.0188,-0.0115,-0.0085,-0.0036,0.0033,0.007,0.0091,0.0106,0.0169,0.014,0.0135,0.0138,0.0213,0.0216,0.0217,0.0194,0.0194,0.0194,0,0,-0.0393,-0.0371,-0.0385,-0.0363,-0.033,-0.0296,-0.0296,-0.0245,-0.0218,-0.0183,-0.0128,-0.0078,-0.0011,0.0043,0.0078,0.0077,0.0137,0.0088,0.0062,0.0133,0.0135,0.0138,0.0188,0.0196,0.0091,0.0091,0.0091,0,-0.0417,-0.0426,-0.0385,-0.039,-0.0377,-0.0316,-0.0324,-0.0286,-0.0227,-0.0203,-0.0185,-0.0074,-0.0021,0.0041,0.0039,0.0067,0.011,0.0074,0.0126,0.013,0.0134,0.0186,0.0195,0.0088,0.0088,0.0089,0.0089,0,-0.0461,-0.0468,-0.0474,-0.0459,-0.0438,-0.0436,-0.0381,-0.0356,-0.0316,-0.0269,-0.0209,-0.013,-0.0061,-0.0038,0.0002,0.0057,0.0077,0.0105,0.0136,0.0132,0.0186,0.0197,0.0083,0.0084,0.0085,0.0086,0,0,-0.0518,-0.051,-0.0514,-0.052,-0.0476,-0.0465,-0.044,-0.0395,-0.0374,-0.0307,-0.0269,-0.0184,-0.0134,-0.009,-0.0028,0.0036,0.0095,0.0076,0.0081,0.0118,0.024,0.0272,0.0288,0.0133,0.0135,0.0136,0.0261,0,-0.0568,-0.0607,-0.0577,-0.0599,-0.0611,-0.0545,-0.0526,-0.0473,-0.0413,-0.0359,-0.0261,-0.0205,-0.0154,-0.0121,-0.0049,0.0064,0.0124,0.0058,0.0246,0.0251,0.0275,0.0303,0.0265,0.0375,0.0272,0.0274,0.0276,0,-0.0622,-0.064,-0.068,-0.0672,-0.0669,-0.0665,-0.0616,-0.059,-0.0491,-0.0442,-0.0357,-0.0275,-0.0168,-0.013,0.0061,0.0016,0.0115,0.0201,0.0209,0.0275,0.0306,0.0368,0.04,0.0296,0.0294,0.0292,0.0291,0,-0.0689,-0.071,-0.0748,-0.0745,-0.0722,-0.0719,-0.0699,-0.062,-0.0591,-0.0491,-0.0452,-0.0313,-0.0233,-0.0091,0.0089,0.0077,0.0299,0.031,0.0431,0.0433,0.0458,0.046,0.0437,0.0437,0.0436,0.0436,0.0436,0,-0.0754,-0.0784,-0.0787,-0.0805,-0.0839,-0.0791,-0.0795,-0.0749,-0.067,-0.0626,-0.0504,-0.0426,-0.0218,-0.0062,0.0083,0.03,0.0301,0.0435,0.0477,0.0429,0.0428,0.0405,0.0399,0.0441,0.044,0.0439,0.0438,0,-0.0822,-0.0826,-0.0869,-0.087,-0.0875,-0.0898,-0.0874,-0.0864,-0.0783,-0.0719,-0.0688,-0.0495,-0.0285,-0.0079,0.0176,0.03,0.0493,0.0563,0.0484,0.0515,0.0576,0.0565,0.071,0.0713,0.0715,0.0716,0.0718,0,-0.0862,-0.0892,-0.0929,-0.0964,-0.097,-0.0993,-0.1002,-0.0934,-0.0904,-0.0749,-0.0713,-0.0501,-0.0318,0.0057,0.0311,0.0578,0.0563,0.0676,0.0654,0.0583,0.0609,0.0595,0.0582,0.0651,0.0652,0.0652,0.0653,0,-0.0928,-0.094,-0.0975,-0.1052,-0.1084,-0.1111,-0.1107,-0.1096,-0.0989,-0.0893,-0.0712,-0.0551,-0.0185,0.0132,0.0459,0.0596,0.063,0.0698,0.0673,0.0582,0.0536,0.0558,0.0546,0.0658,0.0658,0.0657,0.0657,0.0657,-0.0968,-0.1017,-0.1066,-0.1134,-0.1176,-0.1204,-0.1215,-0.1161,-0.1084,-0.0902,-0.0726,-0.0452,-0.0155,0.033,0.0558,0.074,0.0737,0.0769,0.0763,0.0757,0.0723,0.0683,0.0825,0.0826,0.0826,0.0826,0.0827,0,-0.1017,-0.107,-0.1144,-0.1214,-0.127,-0.1272,-0.1261,-0.1228,-0.1119,-0.0901,-0.0679,-0.0322,0.004,0.0318,0.0637,0.0838,0.0802,0.0834,0.0755,0.0749,0.0743,0.0705,0.0804,0.0805,0.0805,0.0806,0,0,-0.1044,-0.1127,-0.1167,-0.1274,-0.1322,-0.1363,-0.1353,-0.1257,-0.1105,-0.0864,-0.0633,-0.0315,0.0046,0.027,0.0514,0.0668,0.0643,0.0662,0.0658,0.0528,0.052,0.0684,0.0617,0,0,0,0,0]}],[{"header":{"parameterUnit":"m.s-1","parameterCategory":2,"la1":30.2991,"la2":30.254,"lo1":-89.0895,"lo2":-89.0444,"dy":0.0017,"dx":0.0017,"nx":28,"ny":28,"refTime":"2024-05-22T21:00:00:Z","depth":"4","parameterNumber":2,"parameterNumberName":"U-component_of_CURRENTS"},"data":[0,0,0,0,0,0,0,0,0,0,0,0,0,0,0,0,0,0,0,0,0,0,0,0,0,0,0,0,0,0,0,0,0,0,0,0,0,0,0,0,0,0,0,0,0,0,0,0,0,0,0,0,0,0,0,0,0,0,-0.1839,-0.184,0,-0.1922,-0.1923,-0.1924,-0.1968,-0.1968,-0.1969,-0.1969,-0.2029,-0.203,-0.2032,0,0,0,0,0,0,0,0,0,0,0,0,0,-0.1723,-0.1724,-0.1839,-0.184,-0.1841,-0.1922,-0.1923,-0.1924,-0.1968,-0.1968,-0.1969,-0.1969,-0.2029,-0.203,-0.2032,0,0,0,0,0,0,0,0,0,0,0,0,0,-0.1784,-0.1725,-0.1839,-0.1874,-0.1879,-0.1922,-0.1923,-0.1925,-0.1968,-0.1968,-0.1969,-0.1969,-0.2028,-0.203,-0.2032,-0.2037,0,0,-0.2038,-0.2039,0,0,0,0,0,0,0,0,-0.1781,-0.1788,-0.1868,-0.1872,-0.1877,-0.1937,-0.1904,-0.1962,-0.1968,-0.1932,-0.1969,-0.1969,-0.1997,-0.2002,-0.2014,-0.204,-0.2043,-0.2038,-0.204,-0.2041,-0.2041,0,0,0,0,0,0,0,-0.1776,-0.1785,-0.187,-0.1869,-0.1875,-0.1888,-0.1897,-0.1915,-0.1959,-0.1935,-0.1939,-0.1951,-0.1999,-0.2012,-0.2016,-0.2043,-0.2038,-0.204,-0.2041,-0.2042,-0.2153,-0.2155,0,0,0,0,0,0,-0.177,-0.1781,-0.1868,-0.1873,-0.1831,-0.189,-0.19,-0.1916,-0.196,-0.1968,-0.1951,-0.1953,-0.2008,-0.2013,-0.2018,-0.21,-0.2041,-0.2042,-0.2044,-0.2152,-0.2154,-0.2156,0,0,0,0,0,0,-0.1767,-0.1777,-0.1864,-0.183,-0.1842,-0.1892,-0.1909,-0.1917,-0.1961,-0.1972,-0.198,-0.199,-0.2009,-0.2015,-0.2067,-0.2099,-0.2043,-0.2045,-0.215,-0.2152,-0.2155,-0.2216,0,0,0,0,0,0,-0.1763,-0.1775,-0.18,-0.183,-0.1844,-0.1912,-0.1909,-0.1919,-0.1967,-0.1972,-0.2008,-0.2012,-0.201,-0.2064,-0.2069,-0.2101,-0.2047,-0.2147,-0.2151,-0.2154,-0.2211,-0.222,-0.2227,0,0,0,0,0,-0.1759,-0.1786,-0.1801,-0.1812,-0.1872,-0.1913,-0.1923,-0.1956,-0.1969,-0.1996,-0.2024,-0.2013,-0.2087,-0.2067,-0.2072,-0.2106,-0.2146,-0.215,-0.2154,-0.2208,-0.2218,-0.2227,0,0,0,0,0,0,-0.175,-0.1795,-0.1811,-0.1852,-0.1891,-0.1922,-0.1955,-0.1976,-0.202,-0.2032,-0.2038,-0.2045,-0.21,-0.2098,-0.2075,-0.2148,-0.2114,-0.2119,-0.2153,-0.2163,-0.2171,-0.2165,-0.2049,0,0,0,0,0,-0.1759,-0.1793,-0.1833,-0.1869,-0.1891,-0.1929,-0.1956,-0.1982,-0.2016,-0.2038,-0.2064,-0.209,-0.2115,-0.2136,-0.2157,-0.22,-0.2171,-0.2224,-0.2232,-0.2239,-0.2239,-0.2232,-0.2239,-0.2168,-0.2168,-0.2168,0,0,-0.1767,-0.1796,-0.1817,-0.1871,-0.1903,-0.1945,-0.1947,-0.2,-0.2041,-0.2036,-0.2107,-0.2123,-0.2134,-0.2182,-0.2206,-0.2188,-0.2243,-0.2244,-0.2249,-0.2245,-0.2237,-0.2243,-0.2249,-0.2171,-0.2171,-0.217,0,0,-0.1787,-0.1826,-0.1859,-0.1896,-0.1954,-0.1978,-0.2,-0.2053,-0.2086,-0.2148,-0.2154,-0.2192,-0.2239,-0.225,-0.2259,-0.2324,-0.2285,-0.2337,-0.2373,-0.2367,-0.2372,-0.2377,-0.2338,-0.2338,-0.234,-0.234,-0.234,0,-0.1797,-0.1842,-0.1876,-0.1918,-0.1955,-0.1996,-0.2041,-0.2082,-0.2147,-0.2172,-0.2182,-0.2251,-0.2267,-0.2308,-0.2336,-0.2342,-0.232,-0.2335,-0.2376,-0.238,-0.2383,-0.2342,-0.2341,-0.2344,-0.2343,-0.2343,-0.2342,0,-0.1832,-0.1884,-0.1909,-0.1974,-0.2018,-0.2066,-0.212,-0.2171,-0.2214,-0.2244,-0.2308,-0.2331,-0.2364,-0.2381,-0.2383,-0.2421,-0.2391,-0.2385,-0.2347,-0.2393,-0.2347,-0.2345,-0.2348,-0.2347,-0.2346,-0.2345,0,0,-0.1807,-0.1913,-0.1925,-0.1965,-0.2054,-0.2086,-0.2163,-0.2227,-0.2267,-0.2331,-0.2372,-0.243,-0.2437,-0.2449,-0.2455,-0.246,-0.2468,-0.2441,-0.2439,-0.2393,-0.2432,-0.2273,-0.2255,-0.2471,-0.2471,-0.2472,-0.2385,0,-0.1826,-0.1906,-0.1959,-0.2041,-0.2085,-0.2152,-0.2212,-0.2277,-0.2329,-0.238,-0.241,-0.2455,-0.2464,-0.2483,-0.2494,-0.2477,-0.2469,-0.249,-0.2402,-0.2399,-0.2244,-0.225,-0.2473,-0.2384,-0.2383,-0.2383,-0.2383,0,-0.1831,-0.1888,-0.1971,-0.207,-0.2096,-0.2155,-0.2244,-0.2304,-0.238,-0.2418,-0.2465,-0.2486,-0.2518,-0.2514,-0.25,-0.2515,-0.2482,-0.246,-0.2456,-0.2283,-0.2236,-0.2332,-0.2379,-0.2379,-0.2379,-0.238,-0.238,0,-0.1773,-0.1888,-0.1953,-0.1992,-0.2113,-0.2165,-0.2228,-0.2315,-0.2358,-0.2439,-0.2463,-0.2507,-0.2519,-0.2507,-0.2478,-0.2493,-0.2433,-0.244,-0.2259,-0.2246,-0.2389,-0.2386,-0.2417,-0.2417,-0.2417,-0.2418,-0.2418,0,-0.1749,-0.1803,-0.1938,-0.1974,-0.2043,-0.2141,-0.2211,-0.2279,-0.2363,-0.2388,-0.2474,-0.2471,-0.2521,-0.2496,-0.2471,-0.2341,-0.2422,-0.225,-0.2213,-0.2416,-0.2417,-0.2386,-0.2384,-0.2414,-0.2415,-0.2416,-0.2416,0,-0.1665,-0.1762,-0.1837,-0.1976,-0.2019,-0.2066,-0.2189,-0.2225,-0.2325,-0.2356,-0.2381,-0.2441,-0.2396,-0.2408,-0.2367,-0.2296,-0.2215,-0.215,-0.2342,-0.2319,-0.2033,-0.2035,-0.1929,-0.1922,-0.1917,-0.1912,-0.1909,0,-0.1625,-0.1661,-0.1809,-0.185,-0.1918,-0.2006,-0.2056,-0.2184,-0.2214,-0.2301,-0.2288,-0.2296,-0.231,-0.2107,-0.2151,-0.2064,-0.2049,-0.1997,-0.204,-0.2008,-0.1983,-0.1994,-0.2003,-0.19,-0.1899,-0.1897,-0.1896,0,-0.1535,-0.1602,-0.1662,-0.1746,-0.1815,-0.1872,-0.1955,-0.1958,-0.2078,-0.2194,-0.2124,-0.2084,-0.2019,-0.1976,-0.1919,-0.1869,-0.2031,-0.1941,-0.1952,-0.1992,-0.1972,-0.1955,-0.197,-0.1877,-0.188,-0.1882,-0.1883,0,-0.1458,-0.1472,-0.1556,-0.1606,-0.1689,-0.1698,-0.1766,-0.1788,-0.1829,-0.1948,-0.1908,-0.1919,-0.1982,-0.1869,-0.1816,-0.1753,-0.1734,-0.1693,-0.1717,-0.1738,-0.1718,-0.1667,-0.1429,0,0,0,0,0,-0.1368,-0.1364,-0.1406,-0.1452,-0.1525,-0.156,-0.1675,-0.1747,-0.1867,-0.1768,-0.1836,-0.1769,-0.1682,-0.169,-0.158,-0.1725,-0.1742,-0.1592,-0.171,-0.1774,-0.1795,-0.1791,0,0,0,0,0,0,-0.1308,-0.1343,-0.135,-0.1298,-0.1294,-0.1346,-0.1405,-0.1495,-0.1458,-0.1589,-0.1544,-0.165,-0.1586,-0.1695,-0.1531,-0.1536,-0.1573,-0.1621,-0.1616,-0.1761,-0.1781,-0.1798,-0.1802,0,0,0,0,0]},{"header":{"parameterUnit":"m.s-1","parameterCategory":2,"la1":30.2991,"la2":30.254,"lo1":-89.0895,"lo2":-89.0444,"dy":0.0017,"dx":0.0017,"nx":28,"ny":28,"refTime":"2024-05-22T21:00:00:Z","depth":"4","parameterNumber":3,"parameterNumberName":"V-component_of_CURRENTS"},"data":[0,0,0,0,0,0,0,0,0,0,0,0,0,0,0,0,0,0,0,0,0,0,0,0,0,0,0,0,0,0,0,0,0,0,0,0,0,0,0,0,0,0,0,0,0,0,0,0,0,0,0,0,0,0,0,0,0,0,-0.0194,-0.0193,0,-0.0126,-0.0125,-0.0124,-0.0082,-0.0082,-0.0082,-0.0081,0.0029,0.0032,0.0035,0,0,0,0,0,0,0,0,0,0,0,0,0,-0.0238,-0.0237,-0.0194,-0.0193,-0.0192,-0.0126,-0.0125,-0.0124,-0.0082,-0.0082,-0.0082,-0.0081,0.0028,0.0031,0.0035,0,0,0,0,0,0,0,0,0,0,0,0,0,-0.0198,-0.0237,-0.0194,-0.0165,-0.0161,-0.0126,-0.0125,-0.0123,-0.0082,-0.0082,-0.0081,-0.0081,0.0027,0.0031,0.0035,0.006,0,0,0.0049,0.005,0,0,0,0,0,0,0,0,-0.02,-0.0196,-0.017,-0.0167,-0.0163,-0.0114,-0.01,-0.0061,-0.0082,-0.011,-0.0081,-0.0081,-0.0016,-0.0008,0.0006,0.0065,0.007,0.0049,0.0052,0.0053,0.0055,0,0,0,0,0,0,0,-0.0203,-0.0198,-0.0165,-0.0169,-0.0165,-0.0138,-0.0133,-0.0092,-0.0062,-0.0108,-0.0105,-0.01,-0.0014,0.0002,0.0009,0.0071,0.0049,0.0053,0.0055,0.0057,0.0163,0.0163,0,0,0,0,0,0,-0.0217,-0.0201,-0.0167,-0.0163,-0.0184,-0.0138,-0.0131,-0.0128,-0.0064,-0.0055,-0.01,-0.0098,-0.0005,0.0004,0.0013,0.0042,0.0053,0.0057,0.006,0.0162,0.0163,0.0163,0,0,0,0,0,0,-0.0219,-0.0215,-0.017,-0.0182,-0.0175,-0.0138,-0.0134,-0.0127,-0.0114,-0.0059,-0.0048,-0.0095,-0.0005,0.0007,0.0048,0.0046,0.0059,0.0063,0.0162,0.0162,0.0163,0.0101,0,0,0,0,0,0,-0.022,-0.0216,-0.0222,-0.0183,-0.0174,-0.0156,-0.0134,-0.0126,-0.0111,-0.0108,-0.0051,-0.004,-0.0004,0.0041,0.0052,0.0052,0.0067,0.0162,0.0162,0.0163,0.0103,0.0099,0.0096,0,0,0,0,0,-0.0222,-0.023,-0.0222,-0.0218,-0.0182,-0.0156,-0.0149,-0.0121,-0.0112,-0.0108,-0.0068,-0.0042,0.0051,0.0045,0.0057,0.0059,0.0162,0.0162,0.0163,0.0104,0.01,0.0096,0,0,0,0,0,0,-0.025,-0.0225,-0.0216,-0.0216,-0.0192,-0.015,-0.0147,-0.0126,-0.0092,-0.0089,-0.0037,-0.0024,0.0009,0.0045,0.0036,0.0092,0.011,0.0113,0.0061,0.0058,0.0055,0.0039,0.007,0,0,0,0,0,-0.0261,-0.0262,-0.0229,-0.023,-0.0222,-0.0186,-0.0173,-0.0154,-0.0118,-0.0103,-0.0063,-0.0018,0.0022,0.0047,0.0086,0.0119,0.0155,0.0129,0.0126,0.0123,0.0119,0.0175,0.0176,0.0165,0.0165,0.0165,0,0,-0.0273,-0.0259,-0.026,-0.0237,-0.0217,-0.0209,-0.0178,-0.0163,-0.0153,-0.0096,-0.0072,-0.0031,0.0027,0.0061,0.0079,0.0091,0.0143,0.0123,0.012,0.0119,0.0176,0.0177,0.0178,0.0165,0.0165,0.0165,0,0,-0.0298,-0.0286,-0.0295,-0.0279,-0.0256,-0.0231,-0.023,-0.0192,-0.0173,-0.0143,-0.0101,-0.006,-0.0,0.0042,0.0072,0.0076,0.012,0.0087,0.0063,0.0117,0.0118,0.012,0.0156,0.0161,0.009,0.009,0.009,0,-0.0315,-0.0322,-0.0293,-0.0295,-0.0289,-0.0245,-0.0251,-0.0222,-0.0175,-0.016,-0.0144,-0.0055,-0.0008,0.0041,0.0042,0.0068,0.0099,0.007,0.0112,0.0114,0.0117,0.0154,0.016,0.0087,0.0087,0.0088,0.0088,0,-0.0341,-0.035,-0.0354,-0.0345,-0.033,-0.0329,-0.0288,-0.0271,-0.0244,-0.021,-0.0164,-0.0097,-0.0043,-0.0021,0.0013,0.0055,0.007,0.0095,0.0117,0.0114,0.0153,0.0161,0.0083,0.0084,0.0085,0.0085,0,0,-0.0376,-0.0376,-0.038,-0.0391,-0.0359,-0.0353,-0.0335,-0.0306,-0.0298,-0.0242,-0.022,-0.0144,-0.0107,-0.0071,-0.0019,0.0032,0.0076,0.0066,0.007,0.0092,0.0183,0.0172,0.018,0.0107,0.0108,0.0109,0.0198,0,-0.041,-0.0441,-0.0422,-0.0446,-0.0457,-0.0415,-0.0404,-0.0369,-0.0328,-0.0293,-0.0214,-0.0173,-0.0125,-0.01,-0.0042,0.0049,0.0096,0.0048,0.0191,0.0195,0.0179,0.0189,0.0113,0.0205,0.0206,0.0208,0.0209,0,-0.0444,-0.0462,-0.0499,-0.0508,-0.0508,-0.0511,-0.0491,-0.0474,-0.0406,-0.0372,-0.0309,-0.0243,-0.0158,-0.012,0.0031,-0.0002,0.0079,0.015,0.0155,0.0173,0.0199,0.0214,0.0224,0.0223,0.0222,0.0221,0.022,0,-0.049,-0.0515,-0.0553,-0.0555,-0.0551,-0.056,-0.0554,-0.0504,-0.049,-0.0421,-0.0395,-0.0286,-0.0227,-0.0108,0.0041,0.0037,0.0207,0.0223,0.0288,0.0288,0.0297,0.0295,0.0321,0.0321,0.0321,0.032,0.032,0,-0.0529,-0.0562,-0.0586,-0.0604,-0.0649,-0.062,-0.0644,-0.0616,-0.0568,-0.0543,-0.0445,-0.0388,-0.022,-0.0097,0.0029,0.0184,0.0201,0.0283,0.0314,0.0268,0.0261,0.0302,0.0299,0.0324,0.0323,0.0322,0.0322,0,-0.057,-0.0586,-0.0634,-0.0659,-0.0673,-0.0705,-0.0715,-0.0719,-0.0667,-0.0628,-0.0606,-0.0457,-0.0294,-0.0127,0.0077,0.0164,0.0314,0.0363,0.0291,0.0316,0.0358,0.0351,0.0436,0.0437,0.0437,0.0437,0.0438,0,-0.0593,-0.0622,-0.0685,-0.0726,-0.0745,-0.0788,-0.081,-0.0777,-0.0761,-0.0657,-0.0628,-0.0475,-0.0361,-0.0076,0.0087,0.0312,0.0343,0.0404,0.0387,0.0351,0.0372,0.0364,0.0356,0.0438,0.0438,0.0439,0.0439,0,-0.0632,-0.0659,-0.07,-0.0788,-0.0836,-0.088,-0.0897,-0.0891,-0.0825,-0.0781,-0.0621,-0.0462,-0.0281,-0.0067,0.0104,0.0267,0.0356,0.0409,0.0409,0.0393,0.0355,0.0373,0.0365,0.044,0.044,0.044,0.044,0,-0.066,-0.0706,-0.0767,-0.0839,-0.0907,-0.094,-0.0949,-0.0897,-0.0864,-0.0725,-0.0671,-0.0459,-0.0327,-0.0089,0.0075,0.0226,0.0258,0.0295,0.0302,0.0302,0.0233,0.0163,0.0217,0,0,0,0,0,-0.0683,-0.0737,-0.0811,-0.0886,-0.0951,-0.0983,-0.0987,-0.097,-0.0901,-0.0789,-0.072,-0.0537,-0.0265,-0.0139,0.0011,0.0049,0.0251,0.0224,0.0288,0.0447,0.0446,0.0387,0,0,0,0,0,0,-0.0702,-0.0777,-0.0814,-0.0905,-0.0959,-0.1016,-0.102,-0.0975,-0.0889,-0.0795,-0.0639,-0.0525,-0.026,-0.0353,0.0006,0.0052,0.0107,0.0363,0.0365,0.0448,0.0447,0.0446,0.0385,0,0,0,0,0]}]]